リニア彗星

P/2002 AR2 ( LINEAR )

English version
Home page
Updated on April 10, 2002

---------------------------------------------------------------------

・ プロフィール

発見日 2002年1月6日
発見光度 18.9等
発見者 Lincoln Laboratory Near-Earth Asteroid Research project

・ 軌道要素

Epoch 2002 Jan. 6.0 TT = JDT 2452280.5
T 2002 Jan. 16.53389 TT                                 MPC
q   2.0644627            (2000.0)            P               Q
n   0.07915775     Peri.   73.67333     +0.15625969     -0.98649153
a   5.3720548      Node     7.84644     +0.71143870     +0.07788226
e   0.6157033      Incl.   21.10921     +0.68515538     +0.14411388
P  12.45

・ 星図

・ 光度変化

        m1 = 14.0 + 5 logΔ + 10.0 log r

---------------------------------------------------------------------

軌道要素は Dr. Brian G. Marsden の計算によるもので、 M.P.E.C. 2002-G30 に掲載されたものです。
星図は StellaNavigator Ver.2.0 for Windows (アストロアーツ 編著 / アスキー出版局刊) で作成したものです。
光度グラフはComet for Windowsで作成したものです。

---------------------------------------------------------------------

Copyright(C) Seiichi Yoshida (comet@aerith.net). All rights reserved.